User: anonymous   Login
Location: Roanoke
(37.2710°N, 79.9420°W)
Time: 08:56:19
(UTC-04:00)
Language:

Cosmos 1441 Rocket - Orbit

View from above orbital plane
View from above orbital plane
View from above satellite
View from above satellite

Ground track
Ground track

The orbit data is extracted from the following two-line orbital elements,

1 13819U 83010B   17145.59809093 +.00000887 +00000-0 +45619-4 0  9997
2 13819 081.1152 186.0214 0033849 055.2076 305.2329 15.14920995870011
Epoch (UTC): 25 May 2017 14:21:15
Eccentricity: 0.0033849
inclination: 81.1152°
perigee height: 498 km
apogee height: 544 km
right ascension of ascending node: 186.0214°
argument of perigee: 55.2076°
revolutions per day: 15.14920995
mean anomaly at epoch: 305.2329°
orbit number at epoch: 87001

The dashed part of the orbit path shows where the satellite is in the earth's shadow,  

DLR